Retour au catalogue

STARLINK-35083

ActifCommunicationsSSO
NORAD 65390·PAYLOAD·🇺🇸 United States

Lancé Aug 30, 2025 depuis Vandenberg Space Force Base

Loading…

Prochains Passages (prochaines 24 heures)

TLE

FraisSource: CelesTrak SupGP

Époque: Sep 15, 2026, 02:35 UTC

1 65390C 25191M   26258.10812500  .00041256  00000+0  12803-2 0  2582
2 65390  97.2847 124.2086 0001678  98.8378 209.9763 15.33427289    11

Suivez STARLINK-35083 en temps réel avec AllMySat

Download on the App Store